Cloud_Cover
100 52 0 5 14 9 11 61 28 1 4 5 4 0 0 0 0 0 0 0 0 0 0 0 0 0 0 0 0 0 0 0 0 0 0 0 0 0 0 0 0 1 0 0 76
30 99 91 100 33 13 16 27 55 94 22 36 0 0 0 0 2 0 0 0 0 0 0 0 0 0 0 0 0 0 0 0 0 0 0 0 0 0 0 0 0 2 0 0 96
88 99 87 98 80 14 16 82 94 100 100 100 63 0 0 1 0 0 0 0 0 0 0 0 0 0 0 0 0 0 0 0 0 0 0 0 0 0 0 0 0 0 0 0 0
98 100 85 97 99 91 95 100 100 100 100 43 8 0 0 0 1 2 0 0 0 0 0 0 0 0 0 0 0 0 0 0 0 0 0 0 0 0 0 0 0 2 4 0 0
97 100 99 61 100 100 81 100 99 100 100 3 0 0 0 1 1 0 0 0 0 0 2 3 0 0 0 0 0 0 0 0 0 0 0 0 0 0 0 0 0 0 0 0 0
1 76 100 72 100 100 100 86 100 97 5 0 0 0 0 4 0 0 0 0 0 2 8 5 3 0 0 0 0 0 0 5 5 0 0 0 0 0 0 0 0 0 0 0 5
2 39 86 100 69 98 100 100 89 1 0 0 0 5 0 0 0 0 0 0 0 0 4 14 5 0 0 0 0 0 0 5 2 5 0 0 0 0 0 0 0 0 0 0 3
0 44 100 100 100 100 100 100 26 1 0 0 0 2 1 0 0 1 0 0 0 0 1 6 1 5 5 3 1 0 0 0 0 4 3 0 0 0 0 0 0 0 0 0 0
0 100 100 100 100 72 39 60 2 0 0 0 5 0 4 0 4 0 1 1 0 5 0 4 3 5 58 5 8 9 2 1 0 0 0 0 0 0 0 0 0 0 0 0 5
0 2 80 100 100 17 0 10 0 7 0 0 0 2 6 2 5 0 0 0 5 5 30 5 5 59 86 100 64 100 94 5 20 0 0 0 0 1 0 0 0 0 0 0 5
0 0 4 99 41 0 36 1 0 21 4 2 1 0 5 5 7 9 5 5 7 73 99 81 100 100 100 100 100 100 100 100 100 47 0 0 4 0 0 0 0 0 0 0 4
0 0 22 0 0 0 9 0 0 0 2 0 0 2 3 5 76 84 4 15 88 98 69 100 100 100 100 100 95 100 100 45 100 100 23 3 0 0 0 0 0 0 0 0 0
0 0 17 2 0 21 0 0 0 0 3 15 4 5 5 27 32 100 5 56 96 100 100 100 98 81 100 100 100 100 100 100 100 84 57 90 8 0 0 0 0 0 0 0 0
0 0 0 1 47 0 0 0 0 0 91 97 79 42 66 59 65 36 66 44 93 97 100 82 97 100 86 100 100 100 100 53 91 83 5 0 1 0 0 0 0 0 0 0 0
0 0 0 82 0 0 0 0 0 1 84 0 38 0 12 88 25 41 12 51 86 100 88 88 56 99 100 100 100 100 95 87 5 5 64 4 0 0 0 0 0 0 0 0 0
0 0 4 13 0 0 0 0 0 25 16 3 5 4 82 100 100 41 100 78 68 100 100 100 90 99 100 97 100 100 50 5 5 5 4 11 2 0 0 0 0 0 0 2 0
0 0 39 0 0 0 0 1 21 0 0 1 0 4 76 100 100 100 98 99 86 85 100 100 86 100 99 88 100 100 100 41 35 63 2 0 4 0 4 0 0 0 0 4 5
0 32 0 0 0 0 0 4 0 0 0 0 3 7 95 74 26 38 100 99 100 100 100 100 100 95 82 60 93 100 82 100 100 80 0 4 0 46 2 2 0 0 0 4 5
0 0 0 0 0 0 0 2 0 0 0 0 5 5 70 100 85 100 100 93 100 100 100 100 100 20 100 100 95 100 100 100 99 85 100 84 3 98 0 1 0 0 0 0 5
0 0 0 0 0 0 0 0 0 0 0 0 5 29 98 100 61 100 83 72 100 100 100 100 100 100 99 25 98 97 98 100 99 21 100 100 15 100 0 2 0 2 1 1 21
0 0 0 0 0 0 0 0 0 0 0 3 5 38 95 100 64 100 100 100 100 100 100 100 100 100 94 89 100 86 88 18 94 100 100 100 100 100 2 0 0 2 4 4 89
0 0 0 0 0 0 0 0 0 0 0 0 5 12 100 100 90 100 100 100 100 100 100 100 100 100 96 100 99 97 98 100 100 34 4 82 100 100 4 2 0 0 0 79 16
4 3 5 3 0 1 1 4 0 0 0 0 4 18 70 94 100 100 100 95 100 100 100 100 100 92 94 96 100 97 36 88 99 73 94 73 16 90 88 30 0 0 0 73 50
4 4 3 1 0 0 4 5 5 5 0 0 0 68 100 99 100 100 100 100 100 100 100 100 30 83 99 96 97 100 100 88 80 100 8 8 86 100 100 90 9 3 5 13 1
4 5 5 5 46 5 23 5 5 5 4 0 3 5 73 100 100 99 100 100 100 98 100 100 100 100 100 100 100 100 80 76 100 91 86 0 76 100 56 100 86 23 3 3 100
12 5 78 77 96 99 48 5 5 5 5 0 4 3 50 100 100 84 100 100 98 100 100 100 100 100 100 100 100 100 100 100 99 100 69 34 100 100 63 5 99 100 5 11 100
94 100 100 100 100 72 72 40 5 13 5 0 5 5 65 47 51 100 74 77 98 95 100 100 100 100 100 100 92 99 48 81 100 50 40 88 97 100 35 47 88 17 38 99 96